Weather History for Madison, WI

Change the Weather History Date:

Sunday, April 29, 2012

  Actual Average Record
Temperature  
Mean Temperature 45 °F 52 °F  
Max Temperature 56 °F 63 °F 87 °F (1952)
Min Temperature 34 °F 41 °F 22 °F (1977)
Degree Days  
Heating Degree Days 20 13  
Month to date heating degree days 494 545  
Since 1 July heating degree days 5615 6994  
Cooling Degree Days 0 0  
Month to date cooling degree days 1 0  
Year to date cooling degree days 27 0  
Moisture  
Dew Point 34 °F    
Average Humidity 64    
Maximum Humidity 96    
Minimum Humidity 32    
Precipitation  
Precipitation 0.56 in 0.11 in 1.74 in (1984)
Month to date precipitation 2.79 3.28  
Year to date precipitation 7.83 8.16  
Snow  
Snow 0.00 in 0.10 in 1.00 in (1996)
Month to date snowfall T 2.6  
Since 1 July snowfall 31.4 50.7  
Snow Depth 0.00 in    
Sea Level Pressure  
Sea Level Pressure 30.20 in    
Wind  
Wind Speed 9 mph (East)    
Max Wind Speed 20 mph    
Max Gust Speed 23 mph    
Visibility 8 miles    
Events Rain    
T = Trace of Precipitation, MM = Missing Value Source: NWS Daily Summary

Daily Weather History Graph

Daily Weather History Graph

Search for Another Location

Airport:

Trip Planner

Search our weather history database for the weather conditions in past years. The results will help you decide how hot, cold, wet, or windy it might be!

Date:

Astronomy

Apr. 29, 2012 Rise Set
Actual Time 5:53 AM CDT 7:57 PM CDT
Civil Twilight 5:22 AM CDT 8:28 PM CDT
Nautical Twilight 4:44 AM CDT 9:06 PM CDT
Astronomical Twilight 4:02 AM CDT 9:48 PM CDT
Moon 12:38 PM CDT (4/29) 1:55 AM CDT (4/29)
Length of Visible Light 15h 06m
Length of Day
14h 04m
First Quarter, 53% of the Moon is Illuminated
Apr 29
First Quarter
May 5
Full
May 12
Last Quarter
May 20
New
May 28
First Quarter

Hourly Weather History & Observations

Time (CDT) Temp. Windchill Dew Point Humidity Pressure Visibility Wind Dir Wind Speed Gust Speed Precip Events Conditions
12:53 AM 39.0 °F 34.8 °F 33.1 °F 79% 30.27 in 10.0 mi NE 5.8 mph - N/A   Clear
1:53 AM 37.9 °F 33.5 °F 30.0 °F 73% 30.28 in 10.0 mi East 5.8 mph - N/A   Clear
2:53 AM 37.0 °F - 30.0 °F 76% 30.27 in 10.0 mi Calm Calm - N/A   Clear
3:53 AM 34.0 °F - 30.0 °F 85% 30.27 in 10.0 mi Calm Calm - N/A   Clear
4:53 AM 34.0 °F - 30.0 °F 85% 30.29 in 10.0 mi Calm Calm - N/A   Partly Cloudy
5:53 AM 35.1 °F - 30.0 °F 82% 30.30 in 10.0 mi Calm Calm - N/A   Partly Cloudy
6:53 AM 37.9 °F - 30.9 °F 76% 30.31 in 10.0 mi Calm Calm - N/A   Partly Cloudy
7:53 AM 42.1 °F 37.7 °F 33.1 °F 70% 30.30 in 10.0 mi East 6.9 mph - N/A   Clear
8:53 AM 46.0 °F 40.2 °F 32.0 °F 58% 30.28 in 10.0 mi East 12.7 mph - N/A   Clear
9:53 AM 50.0 °F - 33.1 °F 52% 30.28 in 10.0 mi East 13.8 mph - N/A   Clear
10:53 AM 52.0 °F - 34.0 °F 50% 30.27 in 10.0 mi East 13.8 mph - N/A   Partly Cloudy
11:53 AM 54.0 °F - 35.1 °F 49% 30.26 in 10.0 mi East 16.1 mph 19.6 mph N/A   Partly Cloudy
12:53 PM 55.0 °F - 36.0 °F 49% 30.25 in 10.0 mi East 16.1 mph 19.6 mph N/A   Clear
1:53 PM 55.9 °F - 34.0 °F 44% 30.21 in 10.0 mi ESE 16.1 mph 20.7 mph N/A   Clear
2:53 PM 55.0 °F - 32.0 °F 42% 30.19 in 10.0 mi East 10.4 mph - N/A   Mostly Cloudy
3:53 PM 55.0 °F - 28.0 °F 35% 30.18 in 10.0 mi East 11.5 mph - N/A   Mostly Cloudy
4:53 PM 54.0 °F - 24.1 °F 31% 30.16 in 10.0 mi East 15.0 mph - N/A   Scattered Clouds
5:53 PM 53.1 °F - 27.0 °F 37% 30.13 in 10.0 mi ESE 11.5 mph - N/A   Overcast
6:53 PM 48.0 °F - 36.0 °F 63% 30.11 in 3.0 mi East 10.4 mph - 0.05 in Rain Light Rain
7:03 PM 46.4 °F 42.4 °F 37.4 °F 71% 30.09 in 3.0 mi East 8.1 mph - 0.01 in Rain Light Rain
7:53 PM 44.1 °F 38.6 °F 39.0 °F 82% 30.09 in 3.0 mi East 10.4 mph - 0.08 in Rain Light Rain
8:53 PM 44.1 °F 37.1 °F 41.0 °F 89% 30.09 in 3.0 mi ESE 15.0 mph - 0.21 in Rain Rain
9:18 PM 44.6 °F 39.7 °F 41.0 °F 87% 30.09 in 4.0 mi East 9.2 mph - 0.05 in Rain Rain
9:25 PM 44.6 °F 39.7 °F 41.0 °F 87% 30.09 in 5.0 mi ESE 9.2 mph - 0.06 in Rain Rain
9:45 PM 42.8 °F 36.6 °F 41.0 °F 93% 30.09 in 4.0 mi ESE 11.5 mph - 0.09 in Rain Light Rain
9:53 PM 43.0 °F 36.8 °F 41.0 °F 93% 30.09 in 4.0 mi ESE 11.5 mph - 0.10 in Rain Light Rain
10:53 PM 43.0 °F 41.3 °F 41.0 °F 93% 30.09 in 2.0 mi NE 3.5 mph - 0.03 in   Light Drizzle
11:53 PM 43.0 °F 41.3 °F 42.1 °F 97% 30.07 in 2.5 mi North 3.5 mph - 0.06 in Rain Light Rain